Year,Month,Day,Hour,Minute,Value (Times are PST for barometer in hPa)
2019,02,14,00,00,998.77
2019,02,14,00,01,998.75
2019,02,14,00,02,998.75
2019,02,14,00,03,998.75
2019,02,14,00,04,998.75
2019,02,14,00,05,998.75
2019,02,14,00,06,998.75
2019,02,14,00,07,998.75
2019,02,14,00,08,998.75
2019,02,14,00,09,998.75
2019,02,14,00,10,998.75
2019,02,14,00,11,998.75
2019,02,14,00,12,998.75
2019,02,14,00,13,998.75
2019,02,14,00,14,998.75
2019,02,14,00,15,998.65
2019,02,14,00,16,998.65
2019,02,14,00,17,998.65
2019,02,14,00,18,998.65
2019,02,14,00,19,998.65
2019,02,14,00,20,998.65
2019,02,14,00,21,998.65
2019,02,14,00,22,998.65
2019,02,14,00,23,998.65
2019,02,14,00,24,998.65
2019,02,14,00,25,998.65
2019,02,14,00,26,998.65
2019,02,14,00,27,998.65
2019,02,14,00,28,998.65
2019,02,14,00,29,998.65
2019,02,14,00,30,998.34
2019,02,14,00,31,998.34
2019,02,14,00,32,998.34
2019,02,14,00,33,998.34
2019,02,14,00,34,998.34
2019,02,14,00,35,998.34
2019,02,14,00,36,998.34
2019,02,14,00,37,998.34
2019,02,14,00,38,998.34
2019,02,14,00,39,998.34
2019,02,14,00,40,998.34
2019,02,14,00,41,998.34
2019,02,14,00,42,998.34
2019,02,14,00,43,998.34
2019,02,14,00,44,998.34
2019,02,14,00,45,998.10
2019,02,14,00,46,998.10
2019,02,14,00,47,998.10
2019,02,14,00,48,998.10
2019,02,14,00,49,998.10
2019,02,14,00,50,998.10
2019,02,14,00,51,998.10
2019,02,14,00,52,998.10
2019,02,14,00,53,998.10
2019,02,14,00,54,998.10
2019,02,14,00,55,998.10
2019,02,14,00,56,998.10
2019,02,14,00,57,998.10
2019,02,14,00,58,998.10
2019,02,14,00,59,998.10
2019,02,14,01,00,998.07
2019,02,14,01,01,998.07
2019,02,14,01,02,998.07
2019,02,14,01,03,998.07
2019,02,14,01,04,998.07
2019,02,14,01,05,998.07
2019,02,14,01,06,998.07
2019,02,14,01,07,998.07
2019,02,14,01,08,998.07
2019,02,14,01,09,998.07
2019,02,14,01,10,998.07
2019,02,14,01,11,998.07
2019,02,14,01,12,998.07
2019,02,14,01,13,998.07
2019,02,14,01,14,998.07
2019,02,14,01,15,997.90
2019,02,14,01,16,997.90
2019,02,14,01,17,997.90
2019,02,14,01,18,997.90
2019,02,14,01,19,997.90
2019,02,14,01,20,997.90
2019,02,14,01,21,997.90
2019,02,14,01,22,997.90
2019,02,14,01,23,997.90
2019,02,14,01,24,997.90
2019,02,14,01,25,997.90
2019,02,14,01,26,997.90
2019,02,14,01,27,997.90
2019,02,14,01,28,997.90
2019,02,14,01,29,997.90
2019,02,14,01,30,997.70
2019,02,14,01,31,997.70
2019,02,14,01,32,997.70
2019,02,14,01,33,997.70
2019,02,14,01,34,997.70
2019,02,14,01,35,997.70
2019,02,14,01,36,997.70
2019,02,14,01,37,997.70
2019,02,14,01,38,997.70
2019,02,14,01,39,997.70
2019,02,14,01,40,997.70
2019,02,14,01,41,997.70
2019,02,14,01,42,997.70
2019,02,14,01,43,997.70
2019,02,14,01,44,997.69
2019,02,14,01,45,997.53
2019,02,14,01,46,997.53
2019,02,14,01,47,997.53
2019,02,14,01,48,997.53
2019,02,14,01,49,997.53
2019,02,14,01,50,997.53
2019,02,14,01,51,997.53
2019,02,14,01,52,997.53
2019,02,14,01,53,997.53
2019,02,14,01,54,997.53
2019,02,14,01,55,997.53
2019,02,14,01,56,997.53
2019,02,14,01,57,997.53
2019,02,14,01,58,997.53
2019,02,14,01,59,997.53
2019,02,14,02,00,997.09
2019,02,14,02,01,997.09
2019,02,14,02,02,997.09
2019,02,14,02,03,997.09
2019,02,14,02,04,997.09
2019,02,14,02,05,997.09
2019,02,14,02,06,997.09
2019,02,14,02,07,997.09
2019,02,14,02,08,997.09
2019,02,14,02,09,997.09
2019,02,14,02,10,997.09
2019,02,14,02,11,997.09
2019,02,14,02,12,997.09
2019,02,14,02,13,997.09
2019,02,14,02,14,997.09
2019,02,14,02,15,997.02
2019,02,14,02,16,997.02
2019,02,14,02,17,997.02
2019,02,14,02,18,997.02
2019,02,14,02,19,997.02
2019,02,14,02,20,997.02
2019,02,14,02,21,997.02
2019,02,14,02,22,997.02
2019,02,14,02,23,997.02
2019,02,14,02,24,997.02
2019,02,14,02,25,997.02
2019,02,14,02,26,997.02
2019,02,14,02,27,997.02
2019,02,14,02,28,997.02
2019,02,14,02,29,997.02
2019,02,14,02,30,996.89
2019,02,14,02,31,996.89
2019,02,14,02,32,996.89
2019,02,14,02,33,996.89
2019,02,14,02,34,996.89
2019,02,14,02,35,996.89
2019,02,14,02,36,996.89
2019,02,14,02,37,996.89
2019,02,14,02,38,996.89
2019,02,14,02,39,996.89
2019,02,14,02,40,996.89
2019,02,14,02,41,996.89
2019,02,14,02,42,996.89
2019,02,14,02,43,996.89
2019,02,14,02,44,996.89
2019,02,14,02,45,996.51
2019,02,14,02,46,996.51
2019,02,14,02,47,996.51
2019,02,14,02,48,996.51
2019,02,14,02,49,996.51
2019,02,14,02,50,996.51
2019,02,14,02,51,996.51
2019,02,14,02,52,996.51
2019,02,14,02,53,996.51
2019,02,14,02,54,996.51
2019,02,14,02,55,996.51
2019,02,14,02,56,996.51
2019,02,14,02,57,996.51
2019,02,14,02,58,996.51
2019,02,14,02,59,996.51
2019,02,14,03,00,996.07
2019,02,14,03,01,996.07
2019,02,14,03,02,996.07
2019,02,14,03,03,996.07
2019,02,14,03,04,996.07
2019,02,14,03,05,996.07
2019,02,14,03,06,996.07
2019,02,14,03,07,996.07
2019,02,14,03,08,996.07
2019,02,14,03,09,996.07
2019,02,14,03,10,996.07
2019,02,14,03,11,996.07
2019,02,14,03,12,996.07
2019,02,14,03,13,996.07
2019,02,14,03,14,996.07
2019,02,14,03,15,996.04
2019,02,14,03,16,996.04
2019,02,14,03,17,996.04
2019,02,14,03,18,996.04
2019,02,14,03,19,996.04
2019,02,14,03,20,996.04
2019,02,14,03,21,996.04
2019,02,14,03,22,996.04
2019,02,14,03,23,996.04
2019,02,14,03,24,996.04
2019,02,14,03,25,996.04
2019,02,14,03,26,996.04
2019,02,14,03,27,996.04
2019,02,14,03,28,996.04
2019,02,14,03,29,996.04
2019,02,14,03,30,995.63
2019,02,14,03,31,995.63
2019,02,14,03,32,995.63
2019,02,14,03,33,995.63
2019,02,14,03,34,995.63
2019,02,14,03,35,995.63
2019,02,14,03,36,995.63
2019,02,14,03,37,995.63
2019,02,14,03,38,995.63
2019,02,14,03,39,995.63
2019,02,14,03,40,995.63
2019,02,14,03,41,995.63
2019,02,14,03,42,995.63
2019,02,14,03,43,995.63
2019,02,14,03,44,995.63
2019,02,14,03,45,995.53
2019,02,14,03,46,995.53
2019,02,14,03,47,995.53
2019,02,14,03,48,995.53
2019,02,14,03,49,995.53
2019,02,14,03,50,995.53
2019,02,14,03,51,995.53
2019,02,14,03,52,995.53
2019,02,14,03,53,995.53
2019,02,14,03,54,995.53
2019,02,14,03,55,995.53
2019,02,14,03,56,995.53
2019,02,14,03,57,995.53
2019,02,14,03,58,995.53
2019,02,14,03,59,995.53
2019,02,14,04,00,995.36
2019,02,14,04,01,995.36
2019,02,14,04,02,995.36
2019,02,14,04,03,995.36
2019,02,14,04,04,995.36
2019,02,14,04,05,995.36
2019,02,14,04,06,995.36
2019,02,14,04,07,995.36
2019,02,14,04,08,995.36
2019,02,14,04,09,995.36
2019,02,14,04,10,995.36
2019,02,14,04,11,995.36
2019,02,14,04,12,995.36
2019,02,14,04,13,995.36
2019,02,14,04,14,995.36
2019,02,14,04,15,995.02
2019,02,14,04,16,995.02
2019,02,14,04,17,995.02
2019,02,14,04,18,995.02
2019,02,14,04,19,995.02
2019,02,14,04,20,995.02
2019,02,14,04,21,995.02
2019,02,14,04,22,995.02
2019,02,14,04,23,995.02
2019,02,14,04,24,995.02
2019,02,14,04,25,995.02
2019,02,14,04,26,995.02
2019,02,14,04,27,995.02
2019,02,14,04,28,995.02
2019,02,14,04,29,995.02
2019,02,14,04,30,994.68
2019,02,14,04,31,994.68
2019,02,14,04,32,994.68
2019,02,14,04,33,994.68
2019,02,14,04,34,994.68
2019,02,14,04,35,994.68
2019,02,14,04,36,994.68
2019,02,14,04,37,994.68
2019,02,14,04,38,994.68
2019,02,14,04,39,994.68
2019,02,14,04,40,994.68
2019,02,14,04,41,994.68
2019,02,14,04,42,994.68
2019,02,14,04,43,994.68
2019,02,14,04,44,994.68
2019,02,14,04,45,994.52
2019,02,14,04,46,994.52
2019,02,14,04,47,994.52
2019,02,14,04,48,994.52
2019,02,14,04,49,994.52
2019,02,14,04,50,994.52
2019,02,14,04,51,994.52
2019,02,14,04,52,994.52
2019,02,14,04,53,994.52
2019,02,14,04,54,994.52
2019,02,14,04,55,994.52
2019,02,14,04,56,994.52
2019,02,14,04,57,994.52
2019,02,14,04,58,994.52
2019,02,14,04,59,994.52
2019,02,14,05,00,994.45
2019,02,14,05,01,994.45
2019,02,14,05,02,994.45
2019,02,14,05,03,994.45
2019,02,14,05,04,994.45
2019,02,14,05,05,994.45
2019,02,14,05,06,994.45
2019,02,14,05,07,994.45
2019,02,14,05,08,994.45
2019,02,14,05,09,994.45
2019,02,14,05,10,994.45
2019,02,14,05,11,994.45
2019,02,14,05,12,994.45
2019,02,14,05,13,994.45
2019,02,14,05,14,994.45
2019,02,14,05,15,994.14
2019,02,14,05,16,994.14
2019,02,14,05,17,994.14
2019,02,14,05,18,994.14
2019,02,14,05,19,994.14
2019,02,14,05,20,994.14
2019,02,14,05,21,994.14
2019,02,14,05,22,994.14
2019,02,14,05,23,994.14
2019,02,14,05,24,994.14
2019,02,14,05,25,994.14
2019,02,14,05,26,994.14
2019,02,14,05,27,994.14
2019,02,14,05,28,994.14
2019,02,14,05,29,994.14
2019,02,14,05,30,993.97
2019,02,14,05,31,993.97
2019,02,14,05,32,993.97
2019,02,14,05,33,993.97
2019,02,14,05,34,993.97
2019,02,14,05,35,993.97
2019,02,14,05,36,993.97
2019,02,14,05,37,993.97
2019,02,14,05,38,993.97
2019,02,14,05,39,993.97
2019,02,14,05,40,993.97
2019,02,14,05,41,993.97
2019,02,14,05,42,993.97
2019,02,14,05,43,993.97
2019,02,14,05,44,993.97
2019,02,14,05,45,993.97
2019,02,14,05,46,993.97
2019,02,14,05,47,993.97
2019,02,14,05,48,993.97
2019,02,14,05,49,993.97
2019,02,14,05,50,993.97
2019,02,14,05,51,993.97
2019,02,14,05,52,993.97
2019,02,14,05,53,993.97
2019,02,14,05,54,993.97
2019,02,14,05,55,993.97
2019,02,14,05,56,993.97
2019,02,14,05,57,993.97
2019,02,14,05,58,993.97
2019,02,14,05,59,993.97
2019,02,14,06,00,993.47
2019,02,14,06,01,993.47
2019,02,14,06,02,993.47
2019,02,14,06,03,993.47
2019,02,14,06,04,993.47
2019,02,14,06,05,993.47
2019,02,14,06,06,993.47
2019,02,14,06,07,993.47
2019,02,14,06,08,993.47
2019,02,14,06,09,993.47
2019,02,14,06,10,993.47
2019,02,14,06,11,993.47
2019,02,14,06,12,993.47
2019,02,14,06,13,993.47
2019,02,14,06,14,993.47
2019,02,14,06,15,993.13
2019,02,14,06,16,993.13
2019,02,14,06,17,993.13
2019,02,14,06,18,993.13
2019,02,14,06,19,993.13
2019,02,14,06,20,993.13
2019,02,14,06,21,993.13
2019,02,14,06,22,993.13
2019,02,14,06,23,993.13
2019,02,14,06,24,993.13
2019,02,14,06,25,993.13
2019,02,14,06,26,993.13
2019,02,14,06,27,993.13
2019,02,14,06,28,993.13
2019,02,14,06,29,993.13
2019,02,14,06,30,992.89
2019,02,14,06,31,992.89
2019,02,14,06,32,992.89
2019,02,14,06,33,992.89
2019,02,14,06,34,992.89
2019,02,14,06,35,992.89
2019,02,14,06,36,992.89
2019,02,14,06,37,992.89
2019,02,14,06,38,992.89
2019,02,14,06,39,992.89
2019,02,14,06,40,992.89
2019,02,14,06,41,992.89
2019,02,14,06,42,992.89
2019,02,14,06,43,992.89
2019,02,14,06,44,992.89
2019,02,14,06,45,992.44
2019,02,14,06,46,992.42
2019,02,14,06,47,992.42
2019,02,14,06,48,992.42
2019,02,14,06,49,992.42
2019,02,14,06,50,992.42
2019,02,14,06,51,992.42
2019,02,14,06,52,992.42
2019,02,14,06,53,992.42
2019,02,14,06,54,992.42
2019,02,14,06,55,992.42
2019,02,14,06,56,992.42
2019,02,14,06,57,992.42
2019,02,14,06,58,992.42
2019,02,14,06,59,992.42
2019,02,14,07,00,992.10
2019,02,14,07,01,992.08
2019,02,14,07,02,992.08
2019,02,14,07,03,992.08
2019,02,14,07,04,992.08
2019,02,14,07,05,992.08
2019,02,14,07,06,992.08
2019,02,14,07,07,992.08
2019,02,14,07,08,992.08
2019,02,14,07,09,992.08
2019,02,14,07,10,992.08
2019,02,14,07,11,992.08
2019,02,14,07,12,992.08
2019,02,14,07,13,992.08
2019,02,14,07,14,992.08
2019,02,14,07,15,991.82
2019,02,14,07,16,991.81
2019,02,14,07,17,991.81
2019,02,14,07,18,991.81
2019,02,14,07,19,991.81
2019,02,14,07,20,991.81
2019,02,14,07,21,991.81
2019,02,14,07,22,991.81
2019,02,14,07,23,991.81
2019,02,14,07,24,991.81
2019,02,14,07,25,991.81
2019,02,14,07,26,991.81
2019,02,14,07,27,991.81
2019,02,14,07,28,991.81
2019,02,14,07,29,991.81
2019,02,14,07,30,991.40
2019,02,14,07,31,991.40
2019,02,14,07,32,991.40
2019,02,14,07,33,991.40
2019,02,14,07,34,991.40
2019,02,14,07,35,991.40
2019,02,14,07,36,991.40
2019,02,14,07,37,991.40
2019,02,14,07,38,991.40
2019,02,14,07,39,991.40
2019,02,14,07,40,991.40
2019,02,14,07,41,991.40
2019,02,14,07,42,991.40
2019,02,14,07,43,991.40
2019,02,14,07,44,991.40
2019,02,14,07,45,991.37
2019,02,14,07,46,991.37
2019,02,14,07,47,991.37
2019,02,14,07,48,991.37
2019,02,14,07,49,991.37
2019,02,14,07,50,991.37
2019,02,14,07,51,991.37
2019,02,14,07,52,991.37
2019,02,14,07,53,991.37
2019,02,14,07,54,991.37
2019,02,14,07,55,991.37
2019,02,14,07,56,991.37
2019,02,14,07,57,991.37
2019,02,14,07,58,991.37
2019,02,14,07,59,991.37
2019,02,14,08,00,990.93
2019,02,14,08,01,990.93
2019,02,14,08,02,990.93
2019,02,14,08,03,990.93
2019,02,14,08,04,990.93
2019,02,14,08,05,990.93
2019,02,14,08,06,990.93
2019,02,14,08,07,990.93
2019,02,14,08,08,990.93
2019,02,14,08,09,990.93
2019,02,14,08,10,990.93
2019,02,14,08,11,990.93
2019,02,14,08,12,990.93
2019,02,14,08,13,990.93
2019,02,14,08,14,990.93
2019,02,14,08,15,990.89
2019,02,14,08,16,990.89
2019,02,14,08,17,990.89
2019,02,14,08,18,990.89
2019,02,14,08,19,990.89
2019,02,14,08,20,990.89
2019,02,14,08,21,990.89
2019,02,14,08,22,990.89
2019,02,14,08,23,990.89
2019,02,14,08,24,990.89
2019,02,14,08,25,990.89
2019,02,14,08,26,990.89
2019,02,14,08,27,990.89
2019,02,14,08,28,990.89
2019,02,14,08,29,990.89
2019,02,14,08,30,990.86
2019,02,14,08,31,990.86
2019,02,14,08,32,990.86
2019,02,14,08,33,990.86
2019,02,14,08,34,990.86
2019,02,14,08,35,990.86
2019,02,14,08,36,990.86
2019,02,14,08,37,990.86
2019,02,14,08,38,990.86
2019,02,14,08,39,990.86
2019,02,14,08,40,990.86
2019,02,14,08,41,990.86
2019,02,14,08,42,990.86
2019,02,14,08,43,990.86
2019,02,14,08,44,990.86
2019,02,14,08,45,990.49
2019,02,14,08,46,990.49
2019,02,14,08,47,990.49
2019,02,14,08,48,990.49
2019,02,14,08,49,990.49
2019,02,14,08,50,990.49
2019,02,14,08,51,990.49
2019,02,14,08,52,990.49
2019,02,14,08,53,990.49
2019,02,14,08,54,990.49
2019,02,14,08,55,990.49
2019,02,14,08,56,990.49
2019,02,14,08,57,990.49
2019,02,14,08,58,990.49
2019,02,14,08,59,990.49
2019,02,14,09,00,990.32
2019,02,14,09,01,990.32
2019,02,14,09,02,990.32
2019,02,14,09,03,990.32
2019,02,14,09,04,990.32
2019,02,14,09,05,990.32
2019,02,14,09,06,990.32
2019,02,14,09,07,990.32
2019,02,14,09,08,990.32
2019,02,14,09,09,990.32
2019,02,14,09,10,990.32
2019,02,14,09,11,990.32
2019,02,14,09,12,990.32
2019,02,14,09,13,990.32
2019,02,14,09,14,990.32
2019,02,14,09,15,990.35
2019,02,14,09,16,990.35
2019,02,14,09,17,990.35
2019,02,14,09,18,990.35
2019,02,14,09,19,990.35
2019,02,14,09,20,990.35
2019,02,14,09,21,990.35
2019,02,14,09,22,990.35
2019,02,14,09,23,990.35
2019,02,14,09,24,990.35
2019,02,14,09,25,990.35
2019,02,14,09,26,990.35
2019,02,14,09,27,990.35
2019,02,14,09,28,990.35
2019,02,14,09,29,990.35
2019,02,14,09,30,990.00
2019,02,14,09,31,989.98
2019,02,14,09,32,989.98
2019,02,14,09,33,989.98
2019,02,14,09,34,989.98
2019,02,14,09,35,989.98
2019,02,14,09,36,989.98
2019,02,14,09,37,989.98
2019,02,14,09,38,989.98
2019,02,14,09,39,989.98
2019,02,14,09,40,989.98
2019,02,14,09,41,989.98
2019,02,14,09,42,989.98
2019,02,14,09,43,989.98
2019,02,14,09,44,989.98
2019,02,14,09,45,989.82
2019,02,14,09,46,989.81
2019,02,14,09,47,989.81
2019,02,14,09,48,989.81
2019,02,14,09,49,989.81
2019,02,14,09,50,989.81
2019,02,14,09,51,989.81
2019,02,14,09,52,989.81
2019,02,14,09,53,989.81
2019,02,14,09,54,989.81
2019,02,14,09,55,989.81
2019,02,14,09,56,989.81
2019,02,14,09,57,989.81
2019,02,14,09,58,989.81
2019,02,14,09,59,989.81
2019,02,14,10,00,989.77
2019,02,14,10,01,989.77
2019,02,14,10,02,989.77
2019,02,14,10,03,989.77
2019,02,14,10,04,989.77
2019,02,14,10,05,989.77
2019,02,14,10,06,989.77
2019,02,14,10,07,989.77
2019,02,14,10,08,989.77
2019,02,14,10,09,989.77
2019,02,14,10,10,989.77
2019,02,14,10,11,989.77
2019,02,14,10,12,989.77
2019,02,14,10,13,989.77
2019,02,14,10,14,989.77
2019,02,14,10,15,989.64
2019,02,14,10,16,989.64
2019,02,14,10,17,989.64
2019,02,14,10,18,989.64
2019,02,14,10,19,989.64
2019,02,14,10,20,989.64
2019,02,14,10,21,989.64
2019,02,14,10,22,989.64
2019,02,14,10,23,989.64
2019,02,14,10,24,989.64
2019,02,14,10,25,989.64
2019,02,14,10,26,989.64
2019,02,14,10,27,989.64
2019,02,14,10,28,989.64
2019,02,14,10,29,989.64
2019,02,14,10,30,989.40
2019,02,14,10,31,989.40
2019,02,14,10,32,989.40
2019,02,14,10,33,989.40
2019,02,14,10,34,989.40
2019,02,14,10,35,989.40
2019,02,14,10,36,989.40
2019,02,14,10,37,989.40
2019,02,14,10,38,989.40
2019,02,14,10,39,989.40
2019,02,14,10,40,989.40
2019,02,14,10,41,989.40
2019,02,14,10,42,989.40
2019,02,14,10,43,989.40
2019,02,14,10,44,989.40
2019,02,14,10,45,989.23
2019,02,14,10,46,989.23
2019,02,14,10,47,989.23
2019,02,14,10,48,989.23
2019,02,14,10,49,989.23
2019,02,14,10,50,989.23
2019,02,14,10,51,989.23
2019,02,14,10,52,989.23
2019,02,14,10,53,989.23
2019,02,14,10,54,989.23
2019,02,14,10,55,989.23
2019,02,14,10,56,989.23
2019,02,14,10,57,989.23
2019,02,14,10,58,989.23
2019,02,14,10,59,989.23
2019,02,14,11,00,989.20
2019,02,14,11,01,989.20
2019,02,14,11,02,989.20
2019,02,14,11,03,989.20
2019,02,14,11,04,989.20
2019,02,14,11,05,989.20
2019,02,14,11,06,989.20
2019,02,14,11,07,989.20
2019,02,14,11,08,989.20
2019,02,14,11,09,989.20
2019,02,14,11,10,989.20
2019,02,14,11,11,989.20
2019,02,14,11,12,989.20
2019,02,14,11,13,989.20
2019,02,14,11,14,989.20
2019,02,14,11,15,988.86
2019,02,14,11,16,988.86
2019,02,14,11,17,988.86
2019,02,14,11,18,988.86
2019,02,14,11,19,988.86
2019,02,14,11,20,988.86
2019,02,14,11,21,988.86
2019,02,14,11,22,988.86
2019,02,14,11,23,988.86
2019,02,14,11,24,988.86
2019,02,14,11,25,988.86
2019,02,14,11,26,988.86
2019,02,14,11,27,988.86
2019,02,14,11,28,988.86
2019,02,14,11,29,988.86
2019,02,14,11,30,988.76
2019,02,14,11,31,988.76
2019,02,14,11,32,988.76
2019,02,14,11,33,988.76
2019,02,14,11,34,988.76
2019,02,14,11,35,988.76
2019,02,14,11,36,988.76
2019,02,14,11,37,988.76
2019,02,14,11,38,988.76
2019,02,14,11,39,988.76
2019,02,14,11,40,988.76
2019,02,14,11,41,988.76
2019,02,14,11,42,988.76
2019,02,14,11,43,988.76
2019,02,14,11,44,988.76
2019,02,14,11,45,988.56
2019,02,14,11,46,988.55
2019,02,14,11,47,988.55
2019,02,14,11,48,988.55
2019,02,14,11,49,988.55
2019,02,14,11,50,988.55
2019,02,14,11,51,988.55
2019,02,14,11,52,988.55
2019,02,14,11,53,988.55
2019,02,14,11,54,988.55
2019,02,14,11,55,988.55
2019,02,14,11,56,988.55
2019,02,14,11,57,988.55
2019,02,14,11,58,988.55
2019,02,14,11,59,988.55
2019,02,14,12,00,988.24
2019,02,14,12,01,988.22
2019,02,14,12,02,988.22
2019,02,14,12,03,988.22
2019,02,14,12,04,988.22
2019,02,14,12,05,988.22
2019,02,14,12,06,988.22
2019,02,14,12,07,988.22
2019,02,14,12,08,988.22
2019,02,14,12,09,988.22
2019,02,14,12,10,988.22
2019,02,14,12,11,988.22
2019,02,14,12,12,988.22
2019,02,14,12,13,988.22
2019,02,14,12,14,988.22
2019,02,14,12,15,987.76
2019,02,14,12,16,987.74
2019,02,14,12,17,987.74
2019,02,14,12,18,987.74
2019,02,14,12,19,987.74
2019,02,14,12,20,987.74
2019,02,14,12,21,987.74
2019,02,14,12,22,987.74
2019,02,14,12,23,987.74
2019,02,14,12,24,987.74
2019,02,14,12,25,987.74
2019,02,14,12,26,987.74
2019,02,14,12,27,987.74
2019,02,14,12,28,987.74
2019,02,14,12,29,987.74
2019,02,14,12,30,987.48
2019,02,14,12,31,987.47
2019,02,14,12,32,987.47
2019,02,14,12,33,987.47
2019,02,14,12,34,987.47
2019,02,14,12,35,987.47
2019,02,14,12,36,987.47
2019,02,14,12,37,987.47
2019,02,14,12,38,987.47
2019,02,14,12,39,987.47
2019,02,14,12,40,987.47
2019,02,14,12,41,987.47
2019,02,14,12,42,987.47
2019,02,14,12,43,987.47
2019,02,14,12,44,987.47
2019,02,14,12,45,987.15
2019,02,14,12,46,987.13
2019,02,14,12,47,987.13
2019,02,14,12,48,987.13
2019,02,14,12,49,987.13
2019,02,14,12,50,987.13
2019,02,14,12,51,987.13
2019,02,14,12,52,987.13
2019,02,14,12,53,987.13
2019,02,14,12,54,987.13
2019,02,14,12,55,987.13
2019,02,14,12,56,987.13
2019,02,14,12,57,987.13
2019,02,14,12,58,987.13
2019,02,14,12,59,987.13
2019,02,14,13,00,986.69
2019,02,14,13,01,986.69
2019,02,14,13,02,986.69
2019,02,14,13,03,986.69
2019,02,14,13,04,986.69
2019,02,14,13,05,986.69
2019,02,14,13,06,986.69
2019,02,14,13,07,986.69
2019,02,14,13,08,986.69
2019,02,14,13,09,986.69
2019,02,14,13,10,986.69
2019,02,14,13,11,986.69
2019,02,14,13,12,986.69
2019,02,14,13,13,986.69
2019,02,14,13,14,986.69
2019,02,14,13,15,986.39
2019,02,14,13,16,986.39
2019,02,14,13,17,986.39
2019,02,14,13,18,986.39
2019,02,14,13,19,986.39
2019,02,14,13,20,986.39
2019,02,14,13,21,986.39
2019,02,14,13,22,986.39
2019,02,14,13,23,986.39
2019,02,14,13,24,986.39
2019,02,14,13,25,986.39
2019,02,14,13,26,986.39
2019,02,14,13,27,986.39
2019,02,14,13,28,986.39
2019,02,14,13,29,986.39
2019,02,14,13,30,986.15
2019,02,14,13,31,986.15
2019,02,14,13,32,986.15
2019,02,14,13,33,986.15
2019,02,14,13,34,986.15
2019,02,14,13,35,986.15
2019,02,14,13,36,986.15
2019,02,14,13,37,986.15
2019,02,14,13,38,986.15
2019,02,14,13,39,986.15
2019,02,14,13,40,986.15
2019,02,14,13,41,986.15
2019,02,14,13,42,986.15
2019,02,14,13,43,986.15
2019,02,14,13,44,986.15
2019,02,14,13,45,985.85
2019,02,14,13,46,985.85
2019,02,14,13,47,985.85
2019,02,14,13,48,985.85
2019,02,14,13,49,985.85
2019,02,14,13,50,985.85
2019,02,14,13,51,985.85
2019,02,14,13,52,985.85
2019,02,14,13,53,985.85
2019,02,14,13,54,985.85
2019,02,14,13,55,985.85
2019,02,14,13,56,985.85
2019,02,14,13,57,985.85
2019,02,14,13,58,985.85
2019,02,14,13,59,985.85
2019,02,14,14,00,985.65
2019,02,14,14,01,985.64
2019,02,14,14,02,985.64
2019,02,14,14,03,985.64
2019,02,14,14,04,985.64
2019,02,14,14,05,985.64
2019,02,14,14,06,985.64
2019,02,14,14,07,985.64
2019,02,14,14,08,985.64
2019,02,14,14,09,985.64
2019,02,14,14,10,985.64
2019,02,14,14,11,985.64
2019,02,14,14,12,985.64
2019,02,14,14,13,985.64
2019,02,14,14,14,985.64
2019,02,14,14,15,985.57
2019,02,14,14,16,985.57
2019,02,14,14,17,985.57
2019,02,14,14,18,985.57
2019,02,14,14,19,985.57
2019,02,14,14,20,985.57
2019,02,14,14,21,985.57
2019,02,14,14,22,985.57
2019,02,14,14,23,985.57
2019,02,14,14,24,985.57
2019,02,14,14,25,985.57
2019,02,14,14,26,985.57
2019,02,14,14,27,985.57
2019,02,14,14,28,985.57
2019,02,14,14,29,985.57
2019,02,14,14,30,985.26
2019,02,14,14,31,985.24
2019,02,14,14,32,985.24
2019,02,14,14,33,985.24
2019,02,14,14,34,985.24
2019,02,14,14,35,985.24
2019,02,14,14,36,985.24
2019,02,14,14,37,985.24
2019,02,14,14,38,985.24
2019,02,14,14,39,985.24
2019,02,14,14,40,985.24
2019,02,14,14,41,985.24
2019,02,14,14,42,985.24
2019,02,14,14,43,985.24
2019,02,14,14,44,985.24
2019,02,14,14,45,985.13
2019,02,14,14,46,985.13
2019,02,14,14,47,985.13
2019,02,14,14,48,985.13
2019,02,14,14,49,985.13
2019,02,14,14,50,985.13
2019,02,14,14,51,985.13
2019,02,14,14,52,985.13
2019,02,14,14,53,985.13
2019,02,14,14,54,985.13
2019,02,14,14,55,985.13
2019,02,14,14,56,985.13
2019,02,14,14,57,985.13
2019,02,14,14,58,985.13
2019,02,14,14,59,985.13
2019,02,14,15,00,985.10
2019,02,14,15,01,985.10
2019,02,14,15,02,985.10
2019,02,14,15,03,985.10
2019,02,14,15,04,985.10
2019,02,14,15,05,985.10
2019,02,14,15,06,985.10
2019,02,14,15,07,985.10
2019,02,14,15,08,985.10
2019,02,14,15,09,985.10
2019,02,14,15,10,985.10
2019,02,14,15,11,985.10
2019,02,14,15,12,985.10
2019,02,14,15,13,985.10
2019,02,14,15,14,985.10
2019,02,14,15,15,985.13
2019,02,14,15,16,985.13
2019,02,14,15,17,985.13
2019,02,14,15,18,985.13
2019,02,14,15,19,985.13
2019,02,14,15,20,985.13
2019,02,14,15,21,985.13
2019,02,14,15,22,985.13
2019,02,14,15,23,985.13
2019,02,14,15,24,985.13
2019,02,14,15,25,985.13
2019,02,14,15,26,985.13
2019,02,14,15,27,985.13
2019,02,14,15,28,985.13
2019,02,14,15,29,985.13
2019,02,14,15,30,985.26
2019,02,14,15,31,985.27
2019,02,14,15,32,985.27
2019,02,14,15,33,985.27
2019,02,14,15,34,985.27
2019,02,14,15,35,985.27
2019,02,14,15,36,985.27
2019,02,14,15,37,985.27
2019,02,14,15,38,985.27
2019,02,14,15,39,985.27
2019,02,14,15,40,985.27
2019,02,14,15,41,985.27
2019,02,14,15,42,985.27
2019,02,14,15,43,985.27
2019,02,14,15,44,985.27
2019,02,14,15,45,985.50
2019,02,14,15,46,985.51
2019,02,14,15,47,985.51
2019,02,14,15,48,985.51
2019,02,14,15,49,985.51
2019,02,14,15,50,985.51
2019,02,14,15,51,985.51
2019,02,14,15,52,985.51
2019,02,14,15,53,985.51
2019,02,14,15,54,985.51
2019,02,14,15,55,985.51
2019,02,14,15,56,985.51
2019,02,14,15,57,985.51
2019,02,14,15,58,985.51
2019,02,14,15,59,985.51
2019,02,14,16,00,985.61
2019,02,14,16,01,985.61
2019,02,14,16,02,985.61
2019,02,14,16,03,985.61
2019,02,14,16,04,985.61
2019,02,14,16,05,985.61
2019,02,14,16,06,985.61
2019,02,14,16,07,985.61
2019,02,14,16,08,985.61
2019,02,14,16,09,985.61
2019,02,14,16,10,985.61
2019,02,14,16,11,985.61
2019,02,14,16,12,985.61
2019,02,14,16,13,985.61
2019,02,14,16,14,985.61
2019,02,14,16,15,985.64
2019,02,14,16,16,985.64
2019,02,14,16,17,985.64
2019,02,14,16,18,985.64
2019,02,14,16,19,985.64
2019,02,14,16,20,985.64
2019,02,14,16,21,985.64
2019,02,14,16,22,985.64
2019,02,14,16,23,985.64
2019,02,14,16,24,985.64
2019,02,14,16,25,985.64
2019,02,14,16,26,985.64
2019,02,14,16,27,985.64
2019,02,14,16,28,985.64
2019,02,14,16,29,985.64
2019,02,14,16,30,985.54
2019,02,14,16,31,985.54
2019,02,14,16,32,985.54
2019,02,14,16,33,985.54
2019,02,14,16,34,985.54
2019,02,14,16,35,985.54
2019,02,14,16,36,985.54